CZ-4B DEB

Satellite information

Favourite Embed

Satellite Type and Status

DEBRISIN ORBIT

Key statistics

Satellite CZ-4B DEB at a glance.

Uptime

5019

Days in orbit

Revolutions

≈ 13.5

Per day

Orbit

SSO

Sun Synchronous Orbit

Inclination

99.8

Latest

Satellite identification and parameters

Extended collection of information and parameters for CZ-4B DEB.

Object identification

Identified? True

Debris? True

Object name: CZ-4B DEB

International designator: 2011-043E

Object number (NORAD): 38315

Object ID (CCSDS): 38315

Country: PEOPLES REPUBLIC OF CHINA (PRC)

Current information (Y/N): Y

RCS size: SMALL

Orbital parameters

Period: 106.494 minutes

Inclination: 99.8414 deg

SMA: 7442.345 km

Apoapsis: 1224.75 km

Periapsis: 903.67 km

RAAN: 63.4987 deg

Eccentricy: 0.0215711

Argument of periapsis: 258.5562 deg

Mean anomaly: 99.1277 deg

Mean motion: 13.52191069 rev/day

Mean motion (dot): 0.00000157 rev/day2

B* drag term: 0.00026645 1/REarth

Two-line elements (TLE)

Creation date: May 10, 2025, 5:27 p.m.

Reference frame: TEME

Reference center: EARTH

Epoch: May 10, 2025, 1:01 a.m. UTC

TLE line 0: 0 CZ-4B DEB

TLE line 1: 1 38315U 11043E 25130.04276670 .00000157 00000-0 26645-3 0 9991

TLE line 2: 2 38315 99.8414 63.4987 0215711 258.5562 99.1277 13.52191069574114

Live tracking on map

Real-time ground track for satellite CZ-4B DEB.

In-orbit conjunctions

A list of the most updated potential collisions computed for object CZ-4B DEB.

Target Orbit TCA Probability of collision Miss distance Type
COSMOS 1011 LEO 2024-10-29 05:19:01 0.0001493179 353.0 (m) PAYLOAD

Associated space launch

CZ-4B DEB was lifted into orbit during the mission ‘Long March 4B | Hai Yang 2A’, on board a Long March 4B space rocket.

The launch took place on Aug. 15, 2011, 10:57 p.m. from Launch Complex 7.

For more information about the launch, click the button.

Launch to space Long March 4B | Hai Yang 2A
Long March 4B | Hai Yang 2A

Agency: N/A

Status: Launch Successful

Launch date: Aug. 15, 2011, 10:57 p.m. UTC

Rocket: Long March 4B

Launch pad: Launch Complex 7

Location: Taiyuan Satellite Launch Center, People's Republic of China

...

Latest news about this satellite

There are no fresh news available about this satellite. Check back as we update our databases every day.


Newsletter sign-up

Weekly statistics, charts and insights to help you stay on top of the space industry.